Location: Newark
(50.8922°N, 11.6094°E)
Time: 19:26:45
(UTC+00:00)

N. Korean satellite - Pass Details

Date: 01 February 2020
Orbit: 456 x 505 km, 97.2° (Epoch: 26 February)

Event Time Altitude Azimuth Distance (km) Brightness Sun altitude
Rises 05:49:10 0° 6° (N) 2,561 10.1 -9.9°
Reaches altitude 10° 05:51:20 10° 357° (N) 1,684 9.1 -9.6°
Maximum altitude 05:54:39 35° 291° (WNW) 814 7.2 -9.1°
Drops below altitude 10° 05:58:00 10° 224° (SW) 1,695 9.0 -8.6°
Sets 06:00:11 0° 216° (SW) 2,580 10.1 -8.2°
